Back to catalog

STARLINK-30567

AliveCommunicationsVLEO
NORAD 58067·PAYLOAD·🇺🇸 United States

Launched Oct 13, 2023 from Cape Canaveral Space Force Station

Loading…

Next Passes (next 24 hours)

TLE

FreshSource: CelesTrak SupGP

Epoch: Sep 15, 2026, 02:04 UTC

1 58067C 23158S   26258.08659722 -.00028664  00000+0 -10381-2 0  2587
2 58067  43.0034  37.7267 0001497 269.1953  38.1827 15.27595427    17

Track STARLINK-30567 in real time with AllMySat

Download on the App Store